Airport Information

KMFR - Rogue Valley Intl Medford Airport

KMFR 261753Z 00000KT 9SM BKN048 BKN055 09/08 A3012 RMK AO2 SLP200 60001 T00890083 10089 20072 53016


  • General Information

  • Coordinates: N 42°22'27"/ W 122°52'24"
  • Location: N/A
  • Surveyed Elevation: 1335 MSL

Operations

Flow Name Active Runways Conditions

Green background denotes normal operations.


Common Frequencies

Callsign Frequency Position Name

More at the Document Center


Charts